Hourly Data Report for October 25, 2019

All times are specified in Local Standard Time (LST). Add 1 hour to adjust for Daylight Saving Time where and when it is observed.

SEPT-ILES
QUEBEC
Current Station Operator: ECCC - MSC

50°13'00.000" N
66°15'00.000" W
52.60 m
7047914
71279
XZV

Download Data

Hourly Data (October 2019)
Hourly Data Report for October 25, 2019
TIME Temp Definition
°C
Dew Point Definition
°C
Rel Hum Definition
%
Wind Dir Definition
10's deg

Wind Spd Definition
km/h
Visibility Definition
km
Stn Press Definition
kPa
Hmdx Definition


Wind Chill Definition


Weather Definition


00:00 5.3 3.4 87 25 11   100.74     LegendNANA
01:00 3.6 2.3 91 28 5   100.79     LegendNANA
02:00 3.3 2.1 92 32 4   100.84     LegendNANA
03:00 2.9 2.2 96 29 6   100.91     LegendNANA
04:00 3.1 2.1 93 30 5   100.97     LegendNANA
05:00 2.5 1.4 92 30 6   101.02     LegendNANA
06:00 1.9 1.0 94 29 6   101.06     LegendNANA
07:00 2.5 1.2 91 32 7   101.09     LegendNANA
08:00 5.3 2.1 80 29 12   101.10     LegendNANA
09:00 5.9 1.3 72 27 10   101.15     LegendNANA
10:00 6.5 1.4 70 27 11   101.20     LegendNANA
11:00 7.9 1.0 62 28 15   101.16     LegendNANA
12:00 8.8 0.5 56 30 13   101.10     LegendNANA
13:00 8.0 -0.6 55 29 14   101.12     LegendNANA
14:00 7.7 -0.2 57 30 11   101.13     LegendNANA
15:00 7.3 -0.5 58 29 10   101.15     LegendNANA
16:00 6.5 0.0 63 33 3   101.14     LegendNANA
17:00 3.8 0.6 80 30 2   101.16     LegendNANA
18:00 3.9 0.0 76 31 3   101.21     LegendNANA
19:00 4.1 -0.5 72 35 6   101.23     LegendNANA
20:00 3.6 -0.7 73 36 6   101.21     LegendNANA
21:00 3.0 -0.8 76 1 5   101.21     LegendNANA
22:00 2.4 -0.9 79 2 6   101.20     LegendNANA
23:00 2.5 -0.8 79 2 6   101.15     LegendNANA

Notes on Data Quality.

Legend

  • E = Estimated
  • M = Missing
  • NA = Not Available
Date modified: